Location: Newark
(44.7333°N, 11.0000°E)
Time: 03:28:05
(UTC+00:00)

Envisat - Visible Passes

Search period start: 21 November 2019 00:00
Search period end: 01 December 2019 00:00
Orbit: 764 x 766 km, 98.1° (Epoch: 20 November)

Date Brightness Start Highest point End Pass type
(mag) Time Alt. Az. Time Alt. Az. Time Alt. Az.
21 Nov 6.1 04:49:14 10° NE 04:51:57 14° E 04:54:37 10° ESE visible
21 Nov 4.0 16:05:07 10° ESE 16:09:06 24° ENE 16:13:06 10° NNE visible
21 Nov 4.0 17:42:56 10° S 17:47:49 47° W 17:52:45 10° NNW visible
22 Nov 2.9 17:05:56 10° SSE 17:11:00 81° ENE 17:16:07 10° NNW visible
22 Nov 6.0 18:48:22 10° WSW 18:50:39 13° W 18:52:56 10° WNW visible
23 Nov 5.5 05:13:35 10° NE 05:17:44 24° E 05:21:49 10° SSE visible
23 Nov 3.4 16:29:42 10° SE 16:34:23 39° ENE 16:39:04 10° N visible
23 Nov 5.0 18:09:09 10° SSW 18:13:29 28° W 18:17:50 10° NW visible
24 Nov 6.4 04:39:05 10° ENE 04:40:31 11° E 04:41:56 10° ESE visible
24 Nov 3.5 17:31:30 10° S 17:36:31 60° W 17:41:33 10° NNW visible
25 Nov 4.5 05:38:35 10° NNE 05:43:24 41° E 05:48:11 10° SSE visible
25 Nov 2.9 16:54:44 10° SSE 16:59:45 65° ENE 17:04:48 10° N visible
25 Nov 5.8 18:36:04 10° SW 18:39:13 16° W 18:42:25 10° NW visible
26 Nov 5.9 05:02:41 10° NE 05:06:20 20° E 05:09:59 10° SE visible
26 Nov 3.7 16:18:45 10° SE 16:23:11 31° ENE 16:27:38 10° N visible
26 Nov 4.6 17:57:31 10° SSW 18:02:07 35° W 18:06:46 10° NNW visible
27 Nov 3.2 17:20:09 10° S 17:25:13 75° WSW 17:30:20 10° NNW visible
28 Nov 5.0 05:27:28 10° NNE 05:32:04 33° E 05:36:37 10° SSE visible
28 Nov 3.1 16:43:36 10° SE 16:48:31 52° ENE 16:53:26 10° N visible
28 Nov 5.5 18:24:05 10° SW 18:27:50 21° W 18:31:37 10° NW visible
29 Nov 6.0 04:51:55 10° NE 04:54:57 16° E 04:57:57 10° SE visible
29 Nov 3.9 16:07:53 10° ESE 16:12:00 26° ENE 16:16:09 10° N visible
29 Nov 4.2 17:45:58 10° S 17:50:47 43° W 17:55:39 10° NNW visible
30 Nov 3.8 05:52:40 10° NNE 05:57:41 57° E 06:02:40 10° S visible
30 Nov 2.9 17:08:52 10° SSE 17:13:57 88° ENE 17:19:03 10° NNW visible
30 Nov 6.1 18:51:52 10° WSW 18:53:39 12° W 18:55:27 10° WNW visible
